| time (UTC) | temp C | wind direction | speed KPH | gust KPH | rain 1hr cm | rain 24hr cm | rain mn cm | humidity % | barometer mb |
| 20260508083002 | 36 | 0 | 0.0 | 0.0 | 0.00 | 0.00 | 0.00 | 24 | 1006.9 |
| 20260508080003 | 36 | 0 | 0.0 | 0.0 | 0.00 | 0.00 | 0.00 | 22 | 1007.0 |
| 20260508070005 | 37 | 0 | 0.0 | 0.0 | 0.00 | 0.00 | 0.00 | 22 | 1006.9 |
| 20260508063002 | 37 | 0 | 0.0 | 0.0 | 0.00 | 0.00 | 0.00 | 20 | 1006.8 |
| 20260508060003 | 32 | 0 | 0.0 | 0.0 | 0.00 | 0.00 | 0.00 | 26 | 1006.6 |
| 20260508053002 | 31 | 0 | 0.0 | 0.0 | 0.00 | 0.00 | 0.00 | 28 | 1006.6 |
| 20260508050003 | 29 | 0 | 0.0 | 0.0 | 0.00 | 0.00 | 0.00 | 31 | 1006.6 |
| 20260508043003 | 28 | 0 | 0.0 | 0.0 | 0.00 | 0.00 | 0.00 | 32 | 1006.5 |
| 20260508040002 | 28 | 0 | 0.0 | 0.0 | 0.00 | 0.00 | 0.00 | 33 | 1006.4 |
| 20260508033002 | 28 | 0 | 0.0 | 0.0 | 0.00 | 0.00 | 0.00 | 34 | 1006.4 |
| 20260508030003 | 28 | 0 | 0.0 | 0.0 | 0.00 | 0.00 | 0.00 | 34 | 1006.3 |
| 20260508023002 | 28 | 0 | 0.0 | 0.0 | 0.00 | 0.00 | 0.00 | 34 | 1006.3 |
| 20260508020002 | 28 | 0 | 0.0 | 0.0 | 0.00 | 0.00 | 0.00 | 34 | 1006.1 |
| 20260508013002 | 28 | 0 | 0.0 | 0.0 | 0.00 | 0.00 | 0.00 | 34 | 1006.1 |
| 20260508010003 | 28 | 0 | 0.0 | 0.0 | 0.00 | 0.00 | 0.00 | 34 | 1006.3 |
| 20260508003002 | 28 | 0 | 0.0 | 0.0 | 0.00 | 0.00 | 0.00 | 34 | 1006.4 |
| 20260508000002 | 28 | 0 | 0.0 | 0.0 | 0.00 | 0.00 | 0.00 | 34 | 1006.4 |
| 20260507233002 | 28 | 0 | 0.0 | 0.0 | 0.00 | 0.00 | 0.00 | 34 | 1006.6 |
| 20260507230002 | 29 | 0 | 0.0 | 0.0 | 0.00 | 0.00 | 0.00 | 33 | 1006.7 |
| 20260507223002 | 29 | 0 | 0.0 | 0.0 | 0.00 | 0.00 | 0.00 | 34 | 1006.8 |
| 20260507220002 | 29 | 0 | 0.0 | 0.0 | 0.00 | 0.00 | 0.00 | 31 | 1006.9 |
| 20260507213001 | 30 | 0 | 0.0 | 0.0 | 0.00 | 0.00 | 0.00 | 31 | 1007.0 |
| 20260507210002 | 30 | 0 | 0.0 | 0.0 | 0.00 | 0.00 | 0.00 | 30 | 1006.8 |
| 20260507203002 | 30 | 0 | 0.0 | 0.0 | 0.00 | 0.00 | 0.00 | 30 | 1006.8 |
| 20260507200003 | 30 | 0 | 0.0 | 0.0 | 0.00 | 0.00 | 0.00 | 29 | 1006.6 |
| 20260507193002 | 31 | 0 | 0.0 | 0.0 | 0.00 | 0.00 | 0.00 | 29 | 1006.6 |
| 20260507190003 | 31 | 0 | 0.0 | 0.0 | 0.00 | 0.00 | 0.00 | 28 | 1006.4 |
| 20260507183002 | 31 | 0 | 0.0 | 0.0 | 0.00 | 0.00 | 0.00 | 27 | 1006.1 |
| 20260507180001 | 32 | 0 | 0.0 | 0.0 | 0.00 | 0.00 | 0.00 | 26 | 1005.9 |
| 20260507173002 | 32 | 0 | 0.0 | 0.0 | 0.00 | 0.00 | 0.00 | 25 | 1005.7 |
| 20260507170002 | 33 | 0 | 0.0 | 0.0 | 0.00 | 0.00 | 0.00 | 23 | 1005.5 |
| 20260507163002 | 33 | 0 | 0.0 | 0.0 | 0.00 | 0.00 | 0.00 | 20 | 1005.5 |
| 20260507160002 | 34 | 0 | 0.0 | 0.0 | 0.00 | 0.00 | 0.00 | 15 | 1005.6 |
| 20260507153002 | 34 | 0 | 0.0 | 0.0 | 0.00 | 0.00 | 0.00 | 16 | 1005.8 |
| 20260507150001 | 35 | 0 | 0.0 | 0.0 | 0.00 | 0.00 | 0.00 | 16 | 1006.0 |
| 20260507143001 | 35 | 0 | 0.0 | 0.0 | 0.00 | 0.00 | 0.00 | 16 | 1006.1 |
| 20260507140002 | 35 | 0 | 0.0 | 0.0 | 0.00 | 0.00 | 0.00 | 24 | 1006.2 |
| 20260507133002 | 35 | 0 | 0.0 | 0.0 | 0.00 | 0.00 | 0.00 | 23 | 1006.2 |
| 20260507130005 | 35 | 0 | 0.0 | 0.0 | 0.00 | 0.00 | 0.00 | 21 | 1006.3 |
| 20260507123002 | 35 | 0 | 0.0 | 0.0 | 0.00 | 0.00 | 0.00 | 18 | 1006.5 |
| 20260507120002 | 35 | 0 | 0.0 | 0.0 | 0.00 | 0.00 | 0.00 | 17 | 1006.9 |
| 20260507113002 | 34 | 0 | 0.0 | 0.0 | 0.00 | 0.00 | 0.00 | 18 | 1006.8 |
| 20260507110002 | 34 | 0 | 0.0 | 0.0 | 0.00 | 0.00 | 0.00 | 17 | 1006.8 |
| 20260507103002 | 34 | 0 | 0.0 | 0.0 | 0.00 | 0.00 | 0.00 | 18 | 1007.0 |
| 20260507100002 | 35 | 0 | 0.0 | 0.0 | 0.00 | 0.00 | 0.00 | 17 | 1006.9 |
| 20260507093002 | 35 | 0 | 0.0 | 0.0 | 0.00 | 0.00 | 0.00 | 18 | 1007.1 |
| 20260507090001 | 35 | 0 | 0.0 | 0.0 | 0.00 | 0.00 | 0.00 | 18 | 1007.2 |